Probability
0 0 0 0 0 0 0 0 0 0 0 0 1 2 4 5 6 5 4 9 17 20 21 26 32 36 35 33 35 35 31 25 18 14 14 15 15 15 13 9 5 4 3 4 5 8 7 4 3
0 0 0 0 0 0 0 0 0 0 0 0 1 3 4 6 7 7 7 11 17 20 21 26 33 37 35 34 34 34 31 25 19 15 13 13 13 14 12 9 5 4 3 3 5 8 8 5 4
0 0 0 0 0 0 0 0 0 0 0 0 2 4 6 7 7 8 9 13 17 20 20 27 36 41 39 36 34 33 31 26 20 16 13 13 14 13 11 8 6 3 2 2 3 6 7 7 7
0 0 0 1 1 1 1 0 0 0 0 0 2 4 6 7 8 9 13 17 20 20 20 27 39 45 44 40 36 33 30 26 21 18 14 13 14 13 10 8 5 4 3 2 2 3 6 8 9
0 0 1 2 2 2 2 1 0 0 0 0 2 3 5 7 10 15 18 20 21 21 21 26 36 42 43 41 38 34 30 26 23 21 16 13 12 11 10 7 5 4 4 3 2 2 4 7 9
0 1 2 3 3 3 3 1 0 0 0 0 1 2 4 7 13 18 21 22 22 23 22 23 29 35 37 37 37 35 31 27 25 23 18 12 9 9 9 7 6 5 5 4 3 1 2 6 8
0 1 2 3 3 3 2 1 1 0 0 1 1 2 4 7 11 16 20 23 25 24 21 19 21 25 28 32 34 34 32 30 28 25 20 14 9 8 9 10 8 7 5 4 2 1 1 3 6
0 0 1 2 2 2 1 1 1 1 2 2 2 4 7 9 10 14 18 21 24 23 19 16 15 16 20 25 28 28 28 29 29 26 22 17 13 11 12 14 13 11 8 6 4 2 2 2 2
0 0 0 1 1 1 0 0 1 2 3 4 5 7 10 11 12 13 15 16 18 17 14 12 13 12 13 17 19 20 22 24 24 24 22 20 17 16 16 17 17 15 13 10 8 6 5 4 2
0 0 0 0 0 0 0 0 1 3 5 6 8 11 14 14 13 13 13 12 12 11 9 10 13 12 10 12 14 16 18 20 21 21 20 19 18 18 18 17 16 16 15 14 11 10 9 7 5
1 0 0 0 0 0 0 0 2 4 5 7 10 14 15 14 14 14 15 13 11 9 8 8 10 10 10 10 12 14 17 20 21 21 20 19 18 19 19 17 15 14 15 15 12 10 11 10 8
1 0 0 0 0 0 0 0 1 3 5 8 11 15 16 15 14 16 18 17 14 11 8 6 6 7 8 9 10 11 14 17 18 20 20 20 20 21 21 18 15 15 16 15 13 11 12 12 10
1 0 0 0 0 0 0 1 2 3 5 9 13 17 18 16 16 17 19 19 15 11 8 5 5 6 8 8 7 7 9 11 13 16 18 18 20 21 20 18 15 16 17 14 12 11 11 11 9
0 0 0 0 0 0 1 2 4 4 7 10 13 17 19 20 19 19 18 17 14 10 8 7 6 8 8 6 4 5 7 8 9 11 12 12 13 15 14 14 13 14 13 12 10 8 7 7 6
0 0 0 0 0 0 1 2 4 6 8 9 11 15 20 23 22 20 18 16 13 10 9 9 9 9 8 6 4 5 7 7 6 7 7 7 8 7 7 7 9 9 9 8 8 6 4 4 4
0 0 0 0 0 0 1 2 3 7 9 10 13 16 19 22 23 22 19 16 14 12 11 11 12 12 10 8 6 7 7 6 5 5 5 6 5 5 5 4 4 6 5 5 5 4 5 4 3
0 0 0 0 0 0 1 2 3 6 9 11 13 17 18 18 20 21 19 16 14 12 10 9 12 13 11 9 8 8 7 6 5 6 6 5 4 4 4 2 1 2 3 2 2 4 5 4 3
0 0 0 0 0 0 0 1 2 6 9 11 12 15 16 16 18 19 18 16 13 10 7 7 9 11 10 9 9 9 9 8 7 7 5 3 2 3 2 1 0 1 2 2 1 3 4 3 2
0 0 0 0 0 0 0 1 2 4 7 9 10 12 13 14 16 18 17 14 12 8 5 5 6 7 8 9 9 10 10 9 8 7 5 2 1 1 1 1 1 1 2 2 2 2 2 1 1
0 0 0 0 0 0 1 2 3 4 6 8 8 9 10 12 15 17 16 13 10 7 4 4 4 4 5 7 8 9 9 8 7 6 5 4 2 1 1 2 2 1 1 1 2 2 1 0 0
0 0 0 0 0 0 1 3 5 5 5 5 5 6 7 9 13 16 16 14 11 6 5 5 5 4 4 5 6 7 7 7 6 4 4 5 4 2 1 1 1 0 0 0 2 3 2 1 0
0 0 0 0 0 0 1 2 4 5 5 4 3 4 5 8 12 15 15 14 10 7 6 6 6 5 4 3 4 5 5 5 4 3 3 4 5 3 1 0 0 0 0 0 1 2 2 1 0
0 0 0 0 0 0 0 0 1 2 3 3 2 3 5 7 10 12 13 11 8 7 7 7 6 4 3 3 3 3 2 3 3 2 2 3 4 3 1 0 0 0 0 0 0 1 1 0 0
0 0 0 0 0 0 0 0 0 0 1 1 1 3 5 5 6 8 10 10 8 8 8 7 6 4 3 2 1 1 0 1 1 1 1 1 3 3 2 0 0 0 0 0 0 0 0 0 0
0 0 0 0 0 0 0 0 0 0 0 0 1 3 3 3 3 5 8 9 8 8 8 7 5 3 2 1 0 0 0 0 0 0 0 1 2 2 1 0 0 0 0 0 0 0 0 0 0
0 0 0 0 0 0 0 0 0 0 1 1 2 3 2 2 2 4 7 9 9 8 8 7 3 1 1 0 0 0 0 0 0 0 0 0 1 1 0 0 0 0 0 0 0 0 0 0 0
0 0 0 0 0 0 0 0 0 1 2 3 4 2 1 1 1 3 6 9 9 7 6 4 2 1 0 0 0 0 0 0 0 0 0 0 0 0 0 0 0 0 0 0 0 0 0 0 0
0 0 0 0 0 0 0 0 0 1 2 3 3 1 0 1 2 3 6 9 9 7 4 3 2 1 0 0 0 0 0 0 0 0 0 0 0 0 0 0 0 0 0 0 0 0 0 0 0
0 0 0 0 0 0 0 0 0 1 1 2 2 1 2 3 3 3 5 7 7 5 3 3 3 2 0 0 0 0 0 0 0 0 0 0 0 0 0 0 0 0 0 0 0 0 0 0 0
0 0 0 0 0 0 0 0 1 2 2 1 2 2 3 3 2 2 4 6 6 4 3 4 3 2 1 0 0 0 0 0 0 0 0 0 0 0 0 0 0 0 0 0 0 0 0 0 0
Wind_Speed
3 3 2 2 4 4 2 3 1 2 3 4 8 9 8 6 4 3 1 8 11 11 9 11 13 13 13 13 14 13 13 12 12 12 11 11 11 11 11 11 10 10 10 9 9 8 7 6 5
2 3 2 4 4 3 3 2 2 2 4 6 8 9 8 7 5 6 3 8 12 11 8 10 13 13 13 13 13 13 12 12 11 11 11 11 10 10 10 10 9 9 8 8 7 7 6 6 5
2 2 3 4 3 3 2 2 2 1 3 5 5 6 5 4 4 4 6 11 10 8 7 10 14 14 13 13 13 12 11 11 11 10 10 10 10 10 9 9 9 8 8 7 7 6 6 5 5
2 3 3 4 1 4 4 3 2 2 4 5 7 6 5 4 3 5 11 12 12 8 7 9 14 14 13 13 12 11 11 10 10 10 9 9 9 9 9 9 8 8 7 7 6 6 6 5 5
3 4 4 2 2 2 1 1 3 5 3 4 8 7 4 4 8 10 11 11 11 8 6 8 12 12 12 12 11 11 10 10 10 9 8 8 8 8 8 8 8 7 7 7 7 6 6 6 5
3 4 3 0 3 2 1 1 4 7 5 4 7 7 3 4 8 9 10 9 9 9 6 6 10 12 11 11 10 10 10 9 9 8 8 8 7 7 8 8 8 8 7 7 7 7 6 6 6
3 3 1 2 2 2 2 1 4 5 5 2 5 6 3 3 5 8 9 9 8 8 6 4 4 6 9 9 9 8 8 8 8 8 8 8 8 7 8 8 8 8 8 8 8 7 7 7 7
5 4 1 1 1 2 2 2 3 5 3 3 4 7 4 3 6 9 9 8 7 6 5 4 3 3 3 5 7 7 7 6 7 8 8 8 7 7 8 8 8 8 8 8 8 8 8 7 7
3 4 2 3 3 3 1 3 2 4 5 4 4 6 6 9 10 10 9 7 6 5 3 3 3 3 3 4 6 7 6 5 5 6 7 6 4 4 5 7 8 9 8 8 8 8 8 8 8
4 3 6 5 4 3 1 3 3 4 5 5 6 7 10 10 10 10 9 7 5 4 2 2 3 3 3 3 3 3 4 3 3 2 3 3 3 3 4 5 8 8 8 8 8 8 7 5 3
3 6 6 4 5 3 2 3 4 7 3 4 8 9 9 9 9 9 8 7 6 5 3 2 3 3 2 2 2 2 2 2 3 3 3 2 2 2 2 2 3 4 5 4 4 4 3 3 2
2 4 4 3 3 3 3 4 4 5 5 6 11 11 10 9 8 8 7 6 5 5 4 2 3 2 2 2 1 1 1 1 2 3 4 3 2 2 2 2 2 2 2 2 2 2 3 3 3
0 2 3 3 1 2 4 5 5 3 6 9 12 11 9 9 8 7 7 6 5 5 4 3 3 3 2 2 1 1 1 1 2 2 2 3 2 2 2 2 2 2 2 2 2 2 3 3 3
3 3 5 2 1 1 5 2 4 2 8 11 11 9 8 8 8 7 6 6 4 4 4 3 3 3 3 2 2 1 1 1 1 0 1 1 2 2 2 2 2 2 2 2 2 3 3 3 3
0 3 6 4 1 1 6 4 1 4 9 10 9 8 7 6 7 7 6 5 4 4 3 3 3 3 3 2 2 1 1 1 1 0 0 1 1 2 2 2 2 2 2 2 2 2 2 2 3
3 3 3 6 1 1 8 2 2 6 10 9 8 8 7 4 5 6 6 5 4 4 3 2 3 3 3 2 2 1 1 1 1 0 0 1 1 2 2 2 2 2 1 1 2 2 2 3 3
3 1 3 6 3 2 6 3 2 5 8 7 6 6 7 4 3 4 5 5 4 4 3 2 2 2 2 2 1 1 1 0 0 0 0 1 1 2 2 1 2 2 1 1 2 2 2 2 3
4 2 3 4 4 5 5 3 3 4 7 6 6 5 6 5 3 3 3 3 3 3 2 2 1 1 1 1 1 1 1 0 0 0 1 1 1 2 2 1 2 1 1 1 2 2 2 2 3
3 1 3 4 2 4 5 4 3 3 5 6 5 4 4 3 2 4 3 2 2 2 2 1 1 0 1 1 0 0 1 1 1 1 1 1 1 1 1 1 1 1 1 2 2 1 2 2 1
1 1 2 3 2 4 7 5 3 4 4 5 5 4 4 3 2 3 2 3 2 2 1 1 1 0 1 1 1 1 1 1 1 1 1 2 2 1 1 2 2 2 2 2 2 1 1 1 1
3 2 2 2 3 3 7 5 4 4 5 5 4 2 3 4 4 3 2 2 2 1 1 1 1 0 1 0 0 1 1 1 1 1 1 2 2 2 2 3 2 3 3 3 3 2 3 2 2
3 4 4 3 1 2 2 2 2 2 5 4 2 2 2 1 2 2 2 2 1 1 1 1 0 1 1 0 1 1 1 1 3 3 2 3 3 3 3 2 3 3 3 3 3 3 2 3 2
4 3 1 0 2 2 3 4 2 1 2 1 1 1 2 2 2 2 2 2 2 1 1 0 1 1 2 1 1 1 1 2 2 2 2 3 3 3 3 3 2 3 3 3 3 2 2 2 3
2 4 6 6 5 3 2 3 2 2 2 1 1 1 1 1 2 2 2 2 1 1 0 1 1 2 2 2 1 1 1 2 2 2 2 2 2 2 3 2 2 3 3 3 3 3 3 3 3
5 6 5 7 5 2 1 4 2 2 2 2 2 1 0 0 1 1 1 1 1 1 1 1 1 2 3 3 2 2 2 2 2 3 3 2 2 2 3 2 3 3 3 3 3 3 4 4 4
1 7 6 3 3 3 2 2 2 1 1 1 2 1 1 1 1 2 2 1 1 2 1 1 2 3 3 2 2 2 2 1 2 3 3 3 3 3 4 3 3 3 4 3 3 3 4 3 3
2 1 6 6 1 1 1 1 1 2 2 2 2 2 2 2 1 1 1 1 2 2 2 2 2 3 3 3 2 2 2 2 2 3 2 2 3 3 3 3 3 3 3 3 3 2 3 3 3
4 4 5 5 2 1 2 1 2 1 2 1 1 0 2 1 1 1 1 1 2 2 2 2 2 2 2 2 2 2 2 2 3 3 3 3 3 3 3 3 3 3 3 3 2 2 2 2 2
4 4 4 3 4 5 2 3 1 3 2 1 2 2 1 1 1 1 2 2 2 2 2 2 2 2 2 2 2 2 3 3 3 3 4 3 3 4 4 4 4 4 3 2 2 2 2 2 2
3 2 4 3 1 2 3 4 2 1 0 0 1 2 1 1 1 1 1 1 2 2 3 2 2 3 3 3 3 3 3 3 3 4 4 3 4 4 4 3 3 3 3 2 2 2 2 2 3
Wind_Direction
193 167 135 78 54 49 316 267 193 37 39 55 79 90 91 81 111 147 180 143 140 146 151 147 142 140 138 137 134 131 129 126 125 125 126 126 128 131 134 136 138 142 146 149 150 150 151 151 151
189 167 91 65 77 48 314 305 75 85 127 109 80 81 79 70 79 112 120 145 142 145 150 149 144 143 142 141 138 136 135 134 133 133 134 135 136 138 140 143 146 150 154 156 159 161 163 164 169
215 171 99 77 92 166 236 262 135 97 91 93 86 62 71 95 105 135 154 145 138 141 146 149 146 146 145 144 143 142 142 141 141 142 142 143 145 146 149 153 157 160 162 165 169 172 175 179 187
114 62 53 71 226 231 195 212 139 89 68 67 96 75 67 64 105 129 136 139 135 138 146 150 147 149 149 147 147 148 148 148 149 150 151 151 153 155 160 164 167 170 173 177 181 185 189 195 201
78 78 56 11 297 274 263 216 125 98 89 75 95 96 74 37 95 116 133 136 135 141 147 149 144 145 149 151 151 153 155 157 158 161 161 160 162 167 173 175 177 180 186 190 193 198 203 209 214
56 72 78 333 296 325 337 83 96 95 102 104 103 110 99 100 106 120 130 134 135 139 140 142 146 146 151 156 157 159 163 164 167 170 170 172 176 181 186 186 187 190 194 199 203 208 214 221 224
121 95 165 198 266 316 315 69 104 108 99 103 122 108 123 105 122 118 112 112 119 122 126 131 143 150 158 159 161 164 169 173 176 179 182 185 189 194 197 195 200 203 206 211 215 218 223 229 230
151 103 337 274 210 272 284 56 87 104 110 111 110 122 145 160 125 108 101 102 105 109 124 139 147 149 154 163 169 172 174 177 183 190 192 193 198 203 204 206 210 214 219 221 223 225 227 231 236
118 80 245 237 203 244 244 85 54 56 89 82 87 115 132 128 113 99 94 89 92 98 112 135 147 160 166 170 175 175 182 191 195 200 204 202 206 209 211 216 218 221 223 224 225 227 231 234 239
112 156 231 221 187 194 143 112 118 72 64 71 85 92 109 113 111 109 111 111 106 104 121 142 154 165 168 179 169 171 183 191 194 192 205 209 205 206 209 219 221 224 226 228 230 233 236 235 236
162 197 237 233 202 167 110 96 103 120 116 147 142 132 122 118 117 117 119 126 128 126 119 127 150 147 168 181 172 179 186 187 191 197 201 203 203 209 212 215 228 228 228 228 234 234 234 229 224
191 243 236 229 217 165 152 131 100 126 166 152 139 133 126 120 121 124 124 125 129 125 117 106 123 133 153 149 166 182 183 187 201 208 203 194 195 207 211 210 214 213 219 223 227 223 229 233 231
194 260 273 263 352 141 116 126 123 116 123 123 125 122 125 129 128 128 128 128 133 131 130 128 119 124 129 115 120 134 155 188 206 215 208 192 192 207 217 219 210 211 211 215 222 224 227 235 244
247 283 291 281 249 140 108 99 97 126 121 120 120 120 125 133 135 132 131 129 137 146 147 140 124 130 126 122 122 131 132 132 169 207 212 182 188 202 205 216 209 214 210 211 208 220 223 230 239
225 333 316 286 234 175 96 57 118 150 123 122 124 127 125 130 130 136 142 137 143 143 137 136 136 127 128 127 130 127 147 139 130 132 205 149 167 213 200 197 200 214 218 215 206 223 231 241 246
6 21 319 289 289 159 105 138 215 144 130 134 136 132 122 115 130 140 135 128 131 133 123 127 118 117 133 140 142 144 137 146 163 151 215 197 200 216 188 196 214 210 202 213 212 209 229 242 245
2 329 279 302 319 113 111 151 194 140 131 132 127 123 119 116 112 132 129 128 135 135 125 115 109 118 127 140 133 127 121 108 32 82 248 245 205 203 187 189 221 204 184 218 233 213 210 230 247
255 258 294 296 312 76 93 124 142 128 127 117 106 108 114 115 120 121 119 123 127 128 117 116 101 101 115 108 82 56 50 52 62 238 233 211 226 194 184 209 223 198 166 221 241 233 226 222 233
209 167 292 277 280 68 78 84 103 107 109 107 102 109 116 123 118 96 99 109 103 93 97 90 65 42 124 99 95 209 284 272 248 227 243 217 220 201 180 223 221 200 191 214 225 227 236 241 216
164 108 312 316 357 83 89 70 60 80 108 125 131 132 133 125 95 84 92 100 95 77 59 47 38 330 266 223 208 211 221 251 246 253 248 233 224 216 198 209 214 208 206 223 231 207 218 244 171
257 195 219 245 353 57 95 38 29 43 62 73 86 109 130 131 145 139 118 110 106 93 76 51 336 331 285 280 43 359 15 346 339 301 265 246 226 225 221 215 212 214 198 213 227 215 200 225 243
269 242 198 188 84 277 110 125 331 30 45 44 52 79 120 124 116 110 113 101 102 176 145 115 352 346 330 4 148 222 237 256 261 260 263 266 244 240 240 231 214 217 212 219 229 216 206 193 226
227 254 260 118 114 64 30 109 287 29 32 334 327 143 148 153 144 126 126 146 182 204 187 162 1 342 320 306 223 259 281 271 279 285 281 280 274 251 238 240 229 227 229 230 230 222 209 199 202
122 37 27 37 65 48 314 117 278 277 234 264 286 121 117 136 157 149 148 162 171 236 321 356 331 306 297 298 289 248 255 280 285 282 281 282 279 267 252 245 240 233 232 234 231 223 214 211 209
62 74 32 10 16 278 309 93 235 247 203 160 150 160 129 149 151 165 170 201 218 253 299 316 307 299 302 303 293 259 248 246 250 255 255 259 257 264 262 252 246 246 239 233 226 224 227 214 210
123 122 142 181 225 275 4 128 230 216 188 127 108 99 51 341 225 201 202 217 238 242 264 278 279 284 289 292 286 272 260 261 261 250 243 245 241 244 246 244 249 253 253 245 228 226 229 217 211
93 105 160 136 107 44 320 155 298 51 45 47 54 42 356 287 249 224 228 228 248 245 249 244 259 281 287 288 290 277 272 267 270 268 249 247 247 249 251 255 257 256 254 248 233 228 237 218 212
123 138 82 97 129 262 293 254 246 310 313 341 17 328 282 295 313 299 285 280 275 270 268 277 280 280 283 296 288 281 270 261 268 271 262 254 253 255 259 257 256 253 253 250 227 229 228 204 207
18 40 87 103 144 153 219 272 226 192 216 229 248 244 244 302 307 303 313 306 315 329 323 304 300 307 309 307 305 298 283 274 273 271 264 258 255 255 254 254 251 247 249 245 225 224 210 197 210
91 90 115 122 272 151 155 257 304 178 197 107 321 322 316 326 314 318 336 348 339 328 319 313 307 303 295 297 300 290 284 280 277 277 279 270 257 252 247 254 244 239 235 230 214 213 207 193 195